Wind_Speed
64 62 60 61 62 63 61 52 46 45 43 42 44 37 43 40 34 34 34 36 35 36 36 36 35 44 47 47 49 53 47 46 45 48 50 48 46 44 42 47 47 45 57 69 68 69 66 66 62
65 60 55 55 63 63 64 60 49 48 50 38 43 45 40 38 35 37 39 40 40 42 41 43 45 46 48 50 54 52 49 46 49 50 52 47 43 44 48 52 50 56 69 69 65 63 63 62 57
66 67 56 56 59 61 62 63 55 47 52 49 38 43 43 41 40 37 39 43 45 45 45 44 46 48 50 54 51 52 47 50 50 50 50 43 51 53 58 57 63 69 72 68 66 66 65 62 58
70 67 66 64 56 61 62 53 64 58 54 43 53 49 50 49 47 48 43 42 47 47 46 47 52 50 59 53 49 53 52 52 47 42 45 57 61 66 65 68 74 74 71 69 68 71 74 69 62
74 75 68 71 66 64 60 60 57 62 62 59 52 54 52 53 59 54 52 47 46 50 52 57 55 57 56 54 56 57 56 52 47 51 53 63 65 63 69 71 70 70 71 71 76 80 71 63 60
75 76 68 73 77 70 67 65 66 59 61 59 61 59 58 56 55 53 52 47 49 56 58 57 58 59 55 55 59 60 59 56 57 54 62 63 63 66 69 71 70 71 72 77 80 76 70 66 64
80 76 71 68 75 71 74 71 67 65 61 60 62 61 62 61 58 57 54 54 56 60 58 59 58 55 52 59 62 63 60 61 61 61 65 65 66 70 74 73 75 77 77 78 78 73 70 68 68
89 82 77 75 72 67 74 74 67 67 66 63 65 63 61 60 59 58 58 60 63 61 57 65 55 55 59 56 60 61 64 63 63 65 67 70 73 79 79 78 79 80 80 78 75 70 69 70 67
90 86 80 76 81 82 76 72 71 69 69 67 67 67 65 67 65 64 64 61 59 59 61 57 56 57 54 56 59 63 63 64 63 69 73 72 78 82 78 78 78 76 77 76 73 70 69 66 61
92 84 80 79 79 78 77 76 79 80 75 69 69 64 64 63 62 63 68 62 66 60 55 55 51 55 55 58 62 61 61 67 71 75 78 81 81 77 79 74 77 79 79 75 71 68 66 64 59
94 88 90 89 90 90 82 77 68 63 68 64 58 59 65 68 69 71 63 66 54 62 58 54 54 55 56 65 69 65 69 73 75 78 81 77 79 76 72 76 79 82 77 72 69 65 62 58 54
96 92 96 95 95 94 88 86 80 76 65 65 65 71 70 72 73 69 62 49 59 59 56 57 56 62 72 70 66 67 69 74 76 78 79 79 77 73 76 81 86 83 76 69 65 63 60 55 54
99 93 94 96 99 99 99 88 86 78 77 81 82 65 68 73 69 66 55 57 59 61 60 61 73 74 76 70 63 68 72 73 78 79 80 79 76 81 83 85 82 78 72 68 64 62 55 51 51
101 99 100 100 101 101 102 96 94 84 86 83 80 73 69 64 67 70 60 67 67 67 73 75 75 79 70 66 70 73 71 74 76 77 79 81 81 85 83 81 78 70 68 67 64 59 51 48 52
103 105 107 104 105 103 107 104 90 82 86 90 86 84 85 81 78 78 79 71 71 68 73 77 73 72 70 77 74 69 71 72 75 79 85 84 85 85 78 77 69 67 65 62 59 55 52 51 52
107 108 105 105 108 105 108 96 90 96 93 88 88 90 90 86 84 80 75 74 74 78 80 74 75 78 78 75 69 70 72 75 79 86 89 89 85 77 74 68 65 63 62 56 54 51 51 52 54
113 108 105 103 105 106 111 93 99 99 96 92 90 90 85 79 74 73 75 79 81 78 74 77 77 75 75 73 68 69 73 79 84 88 85 85 75 73 66 65 62 58 55 53 52 50 50 51 54
116 112 111 109 108 107 104 92 95 94 94 91 87 84 80 77 76 81 84 82 81 79 77 76 75 75 70 64 67 73 78 83 89 87 83 73 70 66 64 59 56 51 48 48 46 51 51 54 61
122 121 119 115 115 111 104 98 97 95 90 87 85 84 85 84 85 79 78 79 77 75 73 70 66 62 64 67 70 75 83 87 82 74 71 66 65 63 56 54 50 44 41 44 45 46 55 59 61
127 123 119 116 115 114 107 99 94 91 88 86 86 83 83 83 82 79 78 77 75 72 68 63 60 65 68 71 76 81 87 77 71 67 65 64 60 53 53 47 35 36 36 40 45 53 55 58 52
127 124 120 118 117 111 107 98 93 90 86 85 83 81 79 77 78 77 76 71 65 59 59 61 65 71 75 81 78 80 72 68 66 66 64 53 51 51 46 37 33 35 38 42 52 54 54 46 42
128 125 121 118 120 116 113 96 94 91 86 82 80 81 77 75 74 73 67 59 56 60 63 66 69 73 77 71 70 67 67 68 66 60 52 50 49 44 38 30 35 40 44 48 54 47 45 40 39
128 127 123 120 116 109 102 94 92 97 89 85 86 86 81 76 73 67 65 62 67 69 68 70 72 71 66 63 61 64 66 64 54 49 49 46 40 34 30 32 37 41 46 52 48 40 37 36 37
117 121 123 122 116 108 101 95 85 96 98 96 92 89 87 82 75 72 70 69 71 71 75 75 73 69 59 59 62 61 61 50 48 45 39 35 32 31 33 36 40 43 45 39 37 37 33 35 34
116 116 114 115 112 102 103 94 83 94 97 98 99 97 92 88 86 78 76 77 74 74 72 69 67 61 58 59 59 56 44 42 39 34 31 31 32 34 35 38 41 36 32 32 35 33 30 34 33
106 110 113 111 104 97 97 88 86 85 83 89 90 89 84 80 80 82 82 79 75 71 67 64 59 56 56 54 53 41 38 33 30 32 32 35 35 35 38 36 29 28 25 31 32 26 31 32 21
96 93 103 108 105 103 93 85 77 74 78 79 77 75 71 68 69 68 66 65 64 61 53 52 52 49 49 46 37 33 30 29 31 33 35 34 36 39 33 27 27 22 25 31 24 25 27 18 13
83 85 93 93 95 98 94 90 77 72 72 65 60 62 58 57 57 55 53 52 50 48 47 44 44 43 39 30 28 27 26 28 31 33 34 35 36 31 27 26 21 21 25 26 21 21 13 12 10
67 72 80 81 84 89 89 88 82 72 67 57 49 48 47 45 41 40 40 41 39 37 37 37 38 32 27 24 25 26 27 30 30 31 33 34 30 27 25 21 17 21 24 19 15 8 7 5 7
58 61 69 72 77 84 85 86 77 69 67 54 46 44 40 38 35 34 30 29 28 31 33 32 26 22 22 23 24 25 28 26 29 32 33 28 27 25 21 16 17 21 21 12 6 9 7 1 5
Wind_Direction
243 244 245 247 255 259 256 253 260 258 270 260 259 259 259 259 255 258 258 258 268 281 286 290 294 301 302 300 301 304 309 311 311 309 305 302 301 298 299 302 301 298 306 308 312 313 311 309 306
241 241 243 248 252 254 259 257 257 256 259 266 259 251 251 252 251 262 259 270 273 282 281 287 295 295 297 294 297 306 307 310 309 310 304 299 296 299 301 303 299 299 308 312 312 310 309 306 300
247 246 249 256 251 249 255 255 255 260 259 249 258 257 259 262 262 262 263 274 278 282 283 289 293 298 296 293 294 302 300 308 307 308 298 300 305 303 305 303 304 309 311 310 309 310 307 304 302
242 246 246 250 248 251 250 253 253 250 252 255 246 256 254 261 265 264 270 273 281 282 286 290 294 297 300 289 293 301 298 303 302 295 301 304 303 302 302 307 309 309 308 309 310 309 307 304 304
244 242 245 247 247 255 250 245 251 252 249 258 261 255 258 259 260 266 272 274 277 280 280 287 294 302 297 290 298 299 298 297 297 301 303 306 303 304 306 308 308 307 307 309 310 310 310 306 306
246 243 248 250 252 257 252 251 252 254 255 256 257 259 260 263 265 264 264 267 270 279 284 286 297 298 290 290 300 299 298 293 294 300 308 305 301 302 308 308 307 306 307 308 307 308 309 307 305
244 247 239 248 253 256 252 252 256 256 255 252 257 259 264 266 263 265 266 270 276 281 285 292 295 287 285 295 300 297 294 296 297 306 305 304 307 309 309 307 306 304 306 307 307 308 307 305 304
243 243 244 246 248 250 252 248 255 255 256 258 259 262 261 263 265 270 273 277 279 286 288 293 285 282 291 296 296 295 293 293 300 305 307 306 307 307 305 304 306 307 306 307 309 308 306 304 303
247 244 244 250 252 250 250 252 255 257 255 257 257 259 260 263 269 274 276 278 283 284 285 284 281 285 292 295 295 293 292 294 297 301 302 299 300 302 304 306 307 308 309 310 309 308 306 304 304
245 246 246 247 242 243 248 250 253 255 256 260 259 260 265 267 268 272 272 274 282 277 278 275 282 286 292 295 294 293 292 292 296 299 299 297 302 305 306 308 309 310 311 309 309 308 306 305 304
244 242 244 245 243 244 244 241 243 252 255 252 254 258 259 265 269 271 270 275 269 271 271 272 282 284 288 289 296 291 291 292 295 297 298 301 303 305 306 307 310 311 309 309 309 308 307 306 304
240 242 244 243 243 244 245 244 249 245 247 250 250 253 266 265 266 264 272 266 268 272 273 279 280 286 293 292 293 290 292 294 294 298 299 302 304 305 307 307 308 310 308 307 308 306 305 307 305
241 241 242 241 242 244 246 245 245 244 244 255 262 261 257 256 261 269 262 268 266 272 276 279 286 290 292 295 291 291 297 291 297 299 300 303 306 307 307 308 308 307 306 307 305 302 307 308 304
241 239 240 241 242 244 247 247 249 254 256 257 259 253 253 255 263 267 264 270 270 271 279 281 285 290 290 290 295 297 295 296 297 300 302 305 308 308 307 308 306 306 307 307 303 304 309 304 303
244 240 238 241 242 243 248 249 253 253 255 257 260 261 263 263 266 265 272 269 272 275 277 282 285 287 289 293 297 296 294 298 300 302 303 307 308 306 307 307 307 305 304 303 302 306 305 306 306
245 244 243 242 243 246 248 248 252 253 255 257 259 263 267 269 272 271 265 270 269 271 278 283 287 288 292 294 294 296 298 300 303 303 303 305 306 305 306 306 305 302 301 303 301 305 307 304 304
243 247 247 246 244 245 246 248 248 250 253 256 259 263 267 266 260 259 263 270 276 278 280 282 286 289 292 295 298 299 299 300 301 303 302 304 304 303 305 304 301 302 301 301 301 303 298 302 299
245 244 243 243 247 247 247 245 248 251 253 254 255 257 256 255 256 263 269 272 274 277 280 282 287 291 294 298 298 297 299 300 302 302 301 302 303 304 304 302 303 299 297 297 295 293 295 298 297
242 242 244 243 244 246 249 247 247 248 252 254 254 256 258 259 261 265 267 269 272 275 278 285 289 291 294 295 296 297 299 302 301 301 301 301 302 303 300 303 302 296 295 292 293 293 297 297 299
244 242 242 243 244 246 246 246 247 249 252 253 254 256 258 260 263 266 268 269 270 274 280 283 287 291 292 294 295 297 299 298 299 298 299 301 302 298 300 302 291 286 284 285 290 295 296 298 300
243 244 244 242 244 246 246 245 247 250 251 254 253 256 259 260 262 265 268 271 275 278 280 284 288 290 291 294 296 295 294 295 296 298 302 301 297 299 300 292 280 277 281 286 292 297 296 302 308
245 245 245 245 245 246 249 248 248 251 254 254 256 256 257 260 261 265 269 271 276 279 282 283 286 289 292 293 292 291 291 295 298 304 300 299 298 299 296 286 277 274 280 291 298 293 303 306 307
242 244 245 245 245 245 246 248 248 250 252 250 249 251 255 259 262 267 271 272 276 277 279 281 286 290 290 289 287 288 293 296 303 300 299 296 296 296 290 277 281 287 286 291 293 301 308 310 309
243 242 242 244 245 246 248 249 243 248 246 247 251 254 255 258 264 267 268 270 272 278 275 279 284 289 286 285 286 290 293 300 298 299 298 299 297 292 287 285 289 290 292 294 302 309 308 313 313
242 242 242 244 245 245 245 246 244 243 248 250 251 251 252 259 266 264 265 267 273 274 276 278 282 280 281 283 286 290 295 294 297 300 299 297 296 295 293 294 292 291 295 304 310 308 313 311 311
241 240 239 241 244 243 244 243 246 247 246 247 248 250 256 260 259 259 263 267 269 270 272 276 275 277 279 281 285 289 291 295 299 299 295 298 297 297 296 293 294 295 304 316 311 311 313 317 320
240 239 238 237 238 240 241 241 241 244 243 243 248 254 254 255 256 258 261 262 265 267 268 270 274 276 277 281 284 285 288 296 297 294 295 298 298 299 297 295 296 298 310 319 318 319 321 322 328
235 235 235 235 234 235 237 236 235 238 242 241 246 249 250 249 253 256 256 257 257 260 263 269 270 272 276 279 283 284 286 293 297 299 300 300 300 297 296 296 295 305 314 321 326 322 319 331 341
232 230 231 230 230 230 232 232 229 232 236 242 241 242 244 248 250 249 246 247 252 255 259 263 267 270 273 279 278 283 290 295 295 299 301 301 296 297 294 291 290 303 316 322 328 307 305 353 12
226 225 225 223 223 225 226 227 225 226 228 237 237 238 239 242 239 235 239 241 246 251 254 258 267 274 277 276 280 290 292 296 304 303 301 298 296 292 287 283 295 308 313 323 329 329 324 57 50
Height
10903 10907 10912 10918 10923 10924 10928 10932 10935 10939 10942 10940 10944 10945 10944 10945 10946 10947 10946 10945 10944 10944 10944 10945 10945 10944 10943 10941 10940 10939 10938 10938 10937 10935 10932 10928 10924 10920 10919 10915 10912 10908 10905 10902 10897 10893 10888 10882 10877
10894 10898 10904 10909 10914 10916 10920 10925 10928 10930 10934 10937 10937 10937 10937 10938 10940 10941 10941 10940 10938 10937 10936 10938 10939 10938 10937 10936 10933 10931 10931 10930 10928 10926 10922 10918 10914 10912 10909 10906 10903 10900 10896 10891 10888 10883 10879 10874 10869
10884 10888 10895 10901 10901 10905 10913 10918 10920 10923 10924 10928 10929 10928 10931 10933 10934 10935 10937 10936 10932 10930 10929 10930 10932 10932 10931 10929 10926 10925 10923 10922 10920 10917 10914 10911 10908 10903 10899 10896 10893 10887 10883 10878 10874 10870 10866 10861 10857
10874 10880 10886 10891 10889 10894 10902 10905 10908 10912 10915 10918 10918 10918 10922 10924 10928 10930 10931 10931 10926 10923 10922 10923 10924 10924 10921 10919 10919 10916 10915 10914 10912 10909 10908 10904 10900 10896 10890 10884 10879 10872 10868 10863 10858 10854 10849 10844 10840
10864 10870 10878 10878 10877 10882 10892 10895 10898 10901 10908 10912 10911 10908 10913 10914 10919 10923 10926 10926 10923 10917 10917 10916 10917 10915 10911 10909 10909 10906 10904 10902 10902 10903 10899 10897 10891 10886 10880 10873 10866 10861 10855 10848 10843 10838 10832 10827 10824
10855 10861 10872 10869 10865 10872 10882 10885 10891 10895 10899 10902 10900 10897 10903 10907 10912 10915 10916 10918 10918 10911 10908 10908 10908 10906 10904 10900 10896 10894 10893 10891 10892 10892 10890 10885 10881 10876 10869 10862 10857 10850 10844 10838 10830 10824 10818 10813 10809
10842 10849 10859 10858 10854 10863 10867 10875 10880 10884 10889 10892 10891 10890 10894 10899 10901 10904 10908 10909 10908 10904 10901 10900 10900 10897 10896 10893 10888 10884 10881 10881 10879 10880 10876 10871 10863 10860 10855 10849 10844 10839 10832 10824 10816 10809 10803 10799 10794
10826 10838 10848 10851 10844 10850 10850 10861 10866 10873 10878 10882 10882 10883 10883 10885 10890 10895 10898 10898 10898 10898 10896 10892 10889 10889 10890 10887 10882 10875 10871 10869 10866 10864 10861 10856 10852 10848 10845 10839 10830 10823 10816 10809 10802 10795 10788 10783 10779
10812 10831 10839 10838 10835 10834 10834 10845 10853 10861 10866 10870 10869 10872 10874 10873 10882 10887 10887 10886 10887 10888 10888 10885 10881 10880 10882 10879 10874 10870 10865 10859 10861 10856 10855 10849 10844 10838 10832 10825 10816 10807 10801 10795 10789 10782 10774 10769 10765
10800 10818 10825 10820 10818 10814 10818 10832 10839 10851 10858 10860 10860 10862 10861 10867 10870 10872 10875 10876 10877 10880 10878 10876 10874 10873 10872 10869 10864 10863 10859 10854 10850 10847 10843 10836 10832 10825 10817 10810 10802 10794 10789 10783 10776 10768 10761 10755 10751
10786 10808 10802 10801 10802 10794 10807 10820 10830 10835 10846 10848 10849 10852 10852 10854 10858 10862 10864 10866 10868 10870 10866 10866 10868 10866 10865 10860 10858 10854 10849 10845 10840 10836 10830 10825 10818 10813 10805 10798 10789 10782 10776 10770 10763 10755 10748 10744 10739
10766 10782 10785 10781 10783 10782 10790 10804 10824 10826 10832 10834 10840 10841 10843 10842 10843 10851 10855 10856 10856 10855 10854 10857 10857 10856 10853 10850 10848 10844 10841 10834 10829 10825 10816 10811 10805 10798 10791 10783 10777 10768 10762 10756 10749 10741 10735 10731 10727
10752 10762 10765 10764 10763 10769 10769 10799 10806 10822 10821 10821 10827 10831 10832 10833 10835 10840 10844 10846 10844 10847 10845 10845 10846 10843 10841 10840 10838 10833 10829 10822 10816 10809 10802 10799 10793 10784 10776 10769 10761 10753 10746 10742 10736 10727 10724 10719 10714
10729 10735 10743 10747 10752 10755 10759 10779 10785 10810 10806 10811 10812 10817 10819 10824 10827 10832 10832 10834 10836 10837 10837 10835 10833 10833 10831 10829 10827 10821 10816 10811 10803 10796 10789 10785 10781 10769 10761 10754 10746 10740 10733 10727 10720 10716 10713 10707 10703
10702 10710 10719 10731 10737 10746 10741 10758 10797 10786 10784 10792 10799 10801 10804 10815 10818 10822 10818 10823 10823 10825 10824 10824 10823 10821 10819 10816 10813 10809 10803 10796 10789 10783 10775 10771 10766 10756 10747 10740 10733 10724 10718 10715 10708 10703 10699 10696 10692
10677 10682 10701 10722 10719 10728 10718 10759 10777 10764 10769 10783 10783 10787 10795 10803 10805 10807 10806 10807 10809 10812 10813 10812 10809 10808 10807 10804 10802 10796 10788 10782 10776 10769 10762 10756 10752 10743 10735 10727 10720 10711 10705 10701 10695 10692 10688 10685 10681
10659 10676 10685 10685 10696 10700 10700 10751 10741 10745 10754 10768 10768 10777 10784 10791 10791 10791 10790 10794 10796 10798 10800 10799 10797 10797 10794 10792 10787 10781 10776 10769 10763 10755 10748 10742 10738 10730 10725 10715 10705 10700 10694 10691 10686 10685 10682 10679 10674
10642 10648 10656 10669 10672 10678 10693 10731 10724 10729 10736 10751 10761 10766 10772 10776 10777 10774 10780 10782 10784 10786 10786 10786 10784 10782 10782 10778 10774 10769 10762 10755 10749 10740 10735 10730 10724 10718 10711 10703 10695 10689 10685 10681 10679 10677 10675 10671 10664
10606 10620 10632 10643 10649 10658 10681 10699 10707 10714 10727 10737 10745 10748 10754 10762 10763 10766 10765 10769 10773 10774 10774 10775 10774 10771 10769 10765 10762 10756 10748 10742 10735 10728 10722 10718 10712 10708 10698 10692 10685 10680 10677 10674 10673 10670 10666 10660 10653
10575 10592 10611 10620 10627 10643 10660 10680 10692 10703 10716 10723 10730 10735 10741 10745 10745 10747 10752 10756 10760 10764 10765 10764 10763 10760 10756 10752 10747 10742 10735 10729 10723 10717 10712 10708 10700 10694 10687 10682 10677 10673 10670 10668 10665 10662 10657 10649 10642
10549 10564 10584 10601 10608 10623 10640 10665 10679 10692 10702 10707 10715 10719 10721 10723 10726 10732 10738 10744 10749 10752 10749 10751 10749 10748 10743 10738 10734 10727 10723 10717 10712 10707 10700 10694 10687 10683 10677 10674 10670 10667 10663 10662 10658 10654 10647 10638 10630
10522 10540 10559 10576 10587 10608 10622 10646 10664 10680 10690 10694 10696 10700 10700 10703 10713 10719 10727 10734 10736 10737 10738 10737 10737 10735 10730 10725 10720 10715 10711 10706 10700 10695 10687 10681 10677 10674 10669 10666 10664 10659 10656 10653 10649 10643 10635 10628 10621
10499 10514 10533 10548 10565 10586 10610 10624 10661 10659 10674 10677 10676 10675 10686 10694 10703 10710 10715 10721 10721 10723 10726 10726 10724 10722 10718 10713 10708 10704 10700 10694 10688 10683 10677 10672 10669 10666 10662 10660 10657 10653 10649 10646 10640 10632 10625 10618 10614
10475 10489 10506 10521 10542 10566 10595 10610 10653 10640 10647 10651 10659 10668 10673 10682 10696 10700 10703 10706 10705 10711 10711 10713 10713 10709 10706 10702 10697 10694 10688 10684 10678 10673 10668 10664 10661 10659 10657 10654 10650 10646 10642 10635 10629 10623 10617 10612 10607
10446 10465 10487 10500 10522 10562 10570 10589 10630 10616 10627 10637 10643 10647 10659 10675 10688 10691 10690 10691 10697 10694 10698 10700 10698 10697 10693 10690 10687 10683 10679 10674 10668 10664 10662 10658 10655 10652 10649 10644 10641 10636 10632 10627 10621 10616 10611 10606 10601
10416 10440 10466 10484 10505 10541 10548 10580 10600 10602 10616 10610 10619 10633 10656 10666 10674 10671 10674 10681 10680 10682 10685 10686 10685 10684 10683 10680 10677 10675 10670 10664 10661 10659 10655 10651 10648 10645 10640 10636 10632 10628 10625 10619 10614 10609 10605 10598 10595
10392 10416 10445 10458 10490 10512 10537 10565 10579 10584 10583 10597 10615 10630 10642 10650 10652 10655 10663 10664 10666 10670 10672 10672 10672 10672 10671 10671 10669 10665 10661 10658 10654 10651 10649 10645 10640 10636 10631 10628 10625 10621 10617 10614 10608 10604 10599 10596 10594
10373 10397 10414 10439 10474 10497 10521 10540 10563 10563 10567 10591 10610 10617 10629 10634 10639 10645 10648 10651 10655 10658 10659 10661 10662 10663 10662 10661 10659 10656 10654 10651 10647 10643 10640 10636 10632 10627 10624 10621 10617 10615 10613 10608 10604 10601 10598 10595 10592
10358 10380 10397 10428 10456 10478 10501 10521 10536 10553 10560 10582 10598 10607 10616 10622 10628 10632 10636 10641 10645 10647 10649 10651 10652 10654 10653 10652 10651 10649 10647 10644 10640 10636 10632 10627 10623 10620 10617 10614 10613 10611 10609 10605 10603 10600 10597 10594 10592
10341 10361 10381 10413 10437 10460 10481 10500 10526 10543 10546 10575 10588 10597 10607 10613 10617 10621 10627 10632 10636 10638 10640 10643 10645 10646 10646 10645 10644 10643 10641 10637 10632 10627 10624 10620 10616 10614 10612 10611 10610 10607 10605 10604 10600 10597 10595 10593 10591